Location: Cazavet
(43.0017°N, 1.0431°E)
Time: 23:40:56
(UTC+00:00)

Cosmos 1408 Rocket - Pass Details

Date: 18 January 2026
Orbit: 594 x 623 km, 82.6° (Epoch: 13 February)

Event Time Altitude Azimuth Distance (km) Brightness Sun altitude
Rises 05:20:22 0° 198° (SSW) 2,856 6.9 -22.0°
Enters shadow 05:20:57 - 199° (SSW) 2,618 6.7 -21.9°
Exits shadow 05:28:06 39° 334° (NNW) 909 4.1 -20.6°
Drops below altitude 10° 05:31:05 10° 359° (N) 1,950 6.0 -20.1°
Sets 05:33:20 0° 4° (N) 2,854 6.9 -19.7°
